Regional Weather Roundup
Issued by NWS Green Bay, WI

Home | Current Version | Previous Version | Text Only | Print | Product List | Glossary On
Versions: 1 2 3 4 5 6 7 8 9 10 11 12 13 14 15 16 17 18 19 20 21 22 23 24 25 26 27 28 29 30 31 32 33 34 35 36 37 38 39 40 41 42 43 44 45 46 47 48 49 50
314
ASUS43 KGRB 261111
RWRGRB

NORTH-CENTRAL AND NORTHEAST WISCONSIN REGIONAL WEATHER ROUNDUP
NATIONAL WEATHER SERVICE GREEN BAY WI
500 AM CST SUN FEB 26 2017

WIZ005-009-010>012-018-019-261200-
NORTH CENTRAL WISCONSIN

CITY           SKY/WX    TMP DP  RH WIND       PRES   REMARKS
IRONWOOD       FLURRIES  21  16  81 SW12G20   29.67F WCI   9
MANITOWISH WTR CLOUDY    19  17  93 S12       29.67F FOG     WCI   6
ARBOR VITAE    CLOUDY    19  16  86 SW8         N/A  WCI   9
EAGLE RIVER    MOCLDY    17  11  79 SW3       29.69F
LAND O LAKES   FLURRIES  17  14  86 S3        29.70F
RHINELANDER    CLOUDY    19  14  81 SW10      29.71F WCI   7
PHILLIPS       CLOUDY    20  16  84 S10       29.70F WCI   8
ANTIGO         CLOUDY    18  15  86 N10       29.76F WCI   7
TOMAHAWK       CLOUDY    19  15  85 CALM      29.73F
MERRILL        NOT AVBL
$$

WIZ013-073-261200-
NORTHEAST WISCONSIN

CITY           SKY/WX    TMP DP  RH WIND       PRES   REMARKS
IRON MOUNTAIN  CLOUDY    21  11  65 S6        29.75F
MARINETTE      CLOUDY    19  14  81 SW9       29.86F WCI   8
OCONTO         CLOUDY    20  15  82 SW6       29.87F
$$

WIZ017-030-035>037-045-261200-
CENTRAL WISCONSIN

CITY           SKY/WX    TMP DP  RH WIND       PRES   REMARKS
MEDFORD        CLOUDY    20  14  76 S9        29.74S WCI  10
WAUSAU         CLOUDY    20  15  81 S10       29.77F WCI   9
MOSINEE        CLOUDY    21  18  86 S13       29.79F WCI   9
MARSHFIELD     CLOUDY    20  14  77 S10       29.76F WCI   9
WISC RAPIDS    CLOUDY    22  17  81 S9        29.82F
STEVENS POINT  CLOUDY    20  14  79 S9        29.81F WCI   9
WAUPACA        CLOUDY    22  16  75 S7        29.86F
SHAWANO        MOCLDY    21  17  84 S3        29.84F
CLINTONVILLE   CLOUDY    21  18  86 S8        29.85F
WAUTOMA        LGT SNOW  21  17  84 S8        29.87F FOG
$$

WIZ038-039-048-051-261200-
FOX VALLEY

CITY           SKY/WX    TMP DP  RH WIND       PRES   REMARKS
NWS GREEN BAY  CLOUDY    22  19  89 S9        29.88F
APPLETON       CLOUDY    21  14  73 S9        29.85F
OSHKOSH        CLOUDY    22  15  75 S12       29.89F
FOND DU LAC    CLOUDY    22  14  71 S8        29.90F
$$

WIZ022-050-052-261200-
EAST CENTRAL WISCONSIN

CITY           SKY/WX    TMP DP  RH WIND       PRES   REMARKS
EPHRAIM        CLOUDY    21  17  85 SW9       29.85F
WASHINGTON ISL CLOUDY    24  18  75 SW14G20   29.86F
STURGEON BAY   CLOUDY    21  16  81 SW10      29.88F WCI  10
MANITOWOC      CLOUDY    22  17  81 S6        29.92F
SHEBOYGAN      CLOUDY    20  13  74 S10       29.93F WCI   9
$$

LMZ563-521-522-541>543-261200-
LAKESHORE

STATION/POSITION TIME  TEMP    WIND        PRES    VSBY  WAVE
                       AIR SEA DIR/SP/G                  HT/PER
                 (UTC) (F)     (DEG/KT/KT) (MB)    (MI)  (FT/S)
SHEBOYGAN LKSHOR 1100   23     200/ 12/ 13 1014.6F
KEWAUNEE LKSHORE 1048   23     240/  8/ 12 1012.4F
NORTHPORT PIER   1040   23        CALM     1011.5S
SISTER BAY LKSHO 1035   23        CALM       N/A
MENOMINEE LKSHOR 1048   20     210/  6/  8 1010.5F
$$




USA.gov is the U.S. government's official web portal to all federal, state and local government web resources and services.